EW4363 Weather Reports


Display with metric or nautical units.
time (UTC)temp
F
wind
direction
speed
MPH
gust
MPH
rain 1hr
in
rain 24hr
in
rain mn
in
humidity
%
barometer
mb
20260508182306 64 324 1.0 3.0 0.00 0.00 0.00 70 1012.9
20260508181803 65 324 1.0 3.0 0.00 0.00 0.00 70 1012.9
20260508180802 65 317 2.0 5.0 0.00 0.00 0.00 69 1012.8
20260508175802 65 320 2.0 5.0 0.00 0.00 0.00 67 1012.8
20260508175305 65 300 2.0 3.0 0.00 0.00 0.00 66 1012.7
20260508174803 66 321 2.0 7.0 0.00 0.00 0.00 65 1012.7
20260508174302 66 323 3.0 6.0 0.00 0.00 0.00 65 1012.7
20260508173802 66 309 2.0 7.0 0.00 0.00 0.00 64 1012.8
20260508173302 66 330 2.0 3.0 0.00 0.00 0.00 64 1012.7
20260508172803 66 252 2.0 6.0 0.00 0.00 0.00 63 1012.6
20260508172306 67 318 3.0 8.0 0.00 0.00 0.00 63 1012.5
20260508171803 67 320 2.0 6.0 0.00 0.00 0.00 62 1012.5
20260508171302 67 323 3.0 8.0 0.00 0.00 0.00 63 1012.5
20260508170802 67 319 3.0 7.0 0.00 0.00 0.00 63 1012.5
20260508170303 67 320 2.0 6.0 0.00 0.00 0.00 63 1012.4
20260508165802 67 325 3.0 7.0 0.00 0.00 0.00 63 1012.4
20260508165306 67 322 2.0 6.0 0.00 0.00 0.00 63 1012.3
20260508164803 67 317 2.0 7.0 0.00 0.00 0.00 63 1012.3
20260508163803 67 312 3.0 7.0 0.00 0.00 0.00 63 1012.2
20260508163303 68 315 3.0 7.0 0.00 0.00 0.00 63 1012.2
20260508162803 68 319 3.0 7.0 0.00 0.00 0.00 63 1012.2
20260508162306 68 319 2.0 6.0 0.00 0.00 0.00 62 1012.1
20260508161803 68 317 2.0 3.0 0.00 0.00 0.00 62 1012.1
20260508161302 68 325 1.0 3.0 0.00 0.00 0.00 63 1012.1
20260508160802 68 315 2.0 7.0 0.00 0.00 0.00 63 1012.1
20260508160302 68 328 2.0 6.0 0.00 0.00 0.00 64 1012.0
20260508155802 68 318 3.0 7.0 0.00 0.00 0.00 64 1012.1
20260508155305 68 326 2.0 5.0 0.00 0.00 0.00 65 1012.2
20260508154802 68 323 2.0 5.0 0.00 0.00 0.00 66 1012.3
20260508154302 68 324 2.0 7.0 0.00 0.00 0.00 65 1012.3
20260508153802 68 320 4.0 8.0 0.00 0.00 0.00 64 1012.3
20260508153303 68 328 3.0 6.0 0.00 0.00 0.00 64 1012.3
20260508152803 69 316 5.0 9.0 0.00 0.00 0.00 63 1012.3
20260508152306 69 322 3.0 7.0 0.00 0.00 0.00 63 1012.3
20260508151803 69 314 3.0 8.0 0.00 0.00 0.00 62 1012.3
20260508150303 70 318 2.0 6.0 0.00 0.00 0.00 56 1012.3
20260508145803 70 318 4.0 6.0 0.00 0.00 0.00 56 1012.2
20260508145306 71 315 4.0 8.0 0.00 0.00 0.00 55 1012.2
20260508144803 71 322 2.0 6.0 0.00 0.00 0.00 54 1012.2
20260508144303 72 317 2.0 7.0 0.00 0.00 0.00 53 1012.2
20260508143302 73 323 2.0 5.0 0.00 0.00 0.00 52 1012.2
20260508141303 72 310 2.0 5.0 0.00 0.00 0.00 54 1012.3
20260508140803 72 324 2.0 6.0 0.00 0.00 0.00 53 1012.4
20260508140303 72 318 3.0 6.0 0.00 0.00 0.00 52 1012.5
20260508135803 73 324 3.0 6.0 0.00 0.00 0.00 52 1012.6
20260508135305 73 306 2.0 7.0 0.00 0.00 0.00 52 1012.6
20260508134802 73 322 3.0 8.0 0.00 0.00 0.00 51 1012.8
20260508133802 72 319 3.0 6.0 0.00 0.00 0.00 51 1012.9
20260508133302 72 321 3.0 8.0 0.00 0.00 0.00 51 1012.8
20260508132803 72 320 3.0 6.0 0.00 0.00 0.00 51 1012.8
20260508132306 72 308 3.0 6.0 0.00 0.00 0.00 50 1012.9
20260508131802 72 323 3.0 8.0 0.00 0.00 0.00 49 1013.0
20260508130803 72 314 2.0 6.0 0.00 0.00 0.00 49 1013.1
20260508130303 72 323 3.0 6.0 0.00 0.00 0.00 49 1013.0
20260508125803 72 304 1.0 3.0 0.00 0.00 0.00 50 1012.9
20260508125305 72 323 3.0 6.0 0.00 0.00 0.00 50 1012.9
20260508124803 72 307 3.0 9.0 0.00 0.00 0.00 51 1012.9
20260508124303 72 323 3.0 7.0 0.00 0.00 0.00 52 1013.0
20260508123803 71 320 4.0 9.0 0.00 0.00 0.00 53 1013.0
20260508123302 71 303 2.0 8.0 0.00 0.00 0.00 55 1013.1
20260508122803 71 318 2.0 6.0 0.00 0.00 0.00 56 1013.0
20260508122306 71 318 3.0 7.0 0.00 0.00 0.00 56 1013.1
20260508121803 70 317 2.0 10.0 0.00 0.00 0.00 56 1013.1
20260508121303 69 311 2.0 7.0 0.00 0.00 0.00 58 1013.0
20260508120802 69 319 3.0 8.0 0.00 0.00 0.00 57 1013.1
20260508120303 69 323 2.0 9.0 0.00 0.00 0.00 58 1013.0
20260508115802 69 324 4.0 6.0 0.00 0.00 0.00 57 1013.1
20260508114303 70 307 2.0 3.0 0.00 0.00 0.00 56 1013.0
20260508113803 71 323 3.0 6.0 0.00 0.00 0.00 56 1012.9
20260508113302 71 317 2.0 3.0 0.00 0.00 0.00 55 1012.9
20260508112803 71 314 1.0 5.0 0.00 0.00 0.00 53 1012.8
20260508112306 72 319 3.0 7.0 0.00 0.00 0.00 53 1012.9
20260508111802 71 271 1.0 6.0 0.00 0.00 0.00 53 1013.0
20260508111302 71 317 1.0 5.0 0.00 0.00 0.00 55 1013.1
20260508110803 70 302 1.0 3.0 0.00 0.00 0.00 56 1013.0
20260508110302 70 307 1.0 5.0 0.00 0.00 0.00 57 1013.0
20260508105802 70 320 2.0 5.0 0.00 0.00 0.00 57 1013.0
20260508105305 70 325 3.0 7.0 0.00 0.00 0.00 56 1013.0
20260508104802 70 306 2.0 5.0 0.00 0.00 0.00 56 1012.9
20260508104303 70 322 2.0 5.0 0.00 0.00 0.00 54 1013.0
20260508103803 71 328 2.0 3.0 0.00 0.00 0.00 54 1013.1
20260508103303 71 322 2.0 7.0 0.00 0.00 0.00 54 1013.2
20260508102803 71 325 2.0 8.0 0.00 0.00 0.00 51 1013.2
20260508102306 72 322 3.0 7.0 0.00 0.00 0.00 49 1013.3
20260508101803 72 322 2.0 3.0 0.00 0.00 0.00 52 1013.2
20260508101303 72 300 1.0 6.0 0.00 0.00 0.00 52 1013.2
20260508100803 71 307 1.0 2.0 0.00 0.00 0.00 56 1013.4
20260508100303 70 321 3.0 5.0 0.00 0.00 0.00 58 1013.5
20260508095804 69 316 3.0 6.0 0.00 0.00 0.00 58 1013.5
20260508095306 69 325 2.0 5.0 0.00 0.00 0.00 58 1013.4
20260508094803 69 320 2.0 3.0 0.00 0.00 0.00 57 1013.4
20260508094303 69 326 2.0 5.0 0.00 0.00 0.00 58 1013.5
20260508093803 68 287 0.0 3.0 0.00 0.00 0.00 60 1013.5
20260508093303 69 284 1.0 3.0 0.00 0.00 0.00 59 1013.5
20260508092803 68 303 2.0 3.0 0.00 0.00 0.00 59 1013.5
20260508092312 68 324 1.0 3.0 0.00 0.00 0.00 58 1013.6
20260508091303 69 330 2.0 5.0 0.00 0.00 0.00 56 1013.5
20260508090803 69 322 1.0 3.0 0.00 0.00 0.00 57 1013.5
20260508090304 68 311 1.0 3.0 0.00 0.00 0.00 58 1013.5
20260508085803 68 321 2.0 5.0 0.00 0.00 0.00 57 1013.4
20260508085306 67 323 0.0 3.0 0.00 0.00 0.00 58 1013.3
20260508084803 67 316 0.0 2.0 0.00 0.00 0.00 59 1013.3
20260508084303 66 335 1.0 2.0 0.00 0.00 0.00 58 1013.3
20260508083803 66 279 0.0 2.0 0.00 0.00 0.00 60 1013.2
20260508083302 65 338 2.0 3.0 0.00 0.00 0.00 59 1013.2
20260508082803 65 294 0.0 1.0 0.00 0.00 0.00 61 1013.1
20260508082306 64 284 1.0 3.0 0.00 0.00 0.00 62 1013.0
20260508081302 64 269 2.0 6.0 0.00 0.00 0.00 62 1012.8
20260508080803 63 272 2.0 5.0 0.00 0.00 0.00 63 1012.9
20260508080303 62 273 2.0 3.0 0.00 0.00 0.00 64 1012.8
20260508075803 62 279 1.0 3.0 0.00 0.00 0.00 65 1012.8
20260508074803 62 273 2.0 5.0 0.00 0.00 0.00 66 1012.7
20260508073802 61 275 2.0 6.0 0.00 0.00 0.00 67 1012.6
20260508073303 61 267 2.0 3.0 0.00 0.00 0.00 66 1012.7
20260508072307 62 317 1.0 3.0 0.00 0.00 0.00 67 1012.7
20260508071803 61 288 0.0 0.0 0.00 0.00 0.00 70 1012.6
20260508071303 60 288 0.0 1.0 0.00 0.00 0.00 71 1012.5
20260508070803 60 325 0.0 1.0 0.00 0.00 0.00 72 1012.4
20260508070303 60 325 0.0 0.0 0.00 0.00 0.00 74 1012.4
20260508065306 58 324 1.0 3.0 0.00 0.00 0.00 76 1012.5
20260508064303 57 281 2.0 5.0 0.00 0.00 0.00 77 1012.4
20260508063803 56 279 3.0 7.0 0.00 0.00 0.00 77 1012.4
20260508063303 56 273 2.0 6.0 0.00 0.00 0.00 78 1012.4
20260508062306 56 279 1.0 3.0 0.00 0.00 0.00 79 1012.3
20260508061804 55 268 0.0 2.0 0.00 0.00 0.00 80 1012.4
20260508061303 55 286 0.0 3.0 0.00 0.00 0.00 82 1012.3
20260508060803 54 268 2.0 5.0 0.00 0.00 0.00 82 1012.3
20260508060303 54 274 1.0 3.0 0.00 0.00 0.00 84 1012.3
20260508055803 53 274 2.0 5.0 0.00 0.00 0.00 85 1012.3
20260508055306 53 270 2.0 5.0 0.00 0.00 0.00 85 1012.3
20260508054803 52 266 1.0 3.0 0.00 0.00 0.00 86 1012.3
20260508054303 52 281 0.0 2.0 0.00 0.00 0.00 86 1012.4
20260508053803 52 273 0.0 1.0 0.00 0.00 0.00 87 1012.4
20260508052306 52 279 2.0 5.0 0.00 0.00 0.00 87 1012.0
20260508051303 52 273 2.0 3.0 0.00 0.00 0.00 87 1011.9
20260508050807 52 271 1.0 3.0 0.00 0.00 0.00 87 1012.0
20260508050303 52 273 1.0 3.0 0.00 0.00 0.00 88 1011.9
20260508045803 52 275 1.0 3.0 0.00 0.00 0.00 88 1011.8
20260508045306 51 326 0.0 1.0 0.00 0.00 0.00 88 1011.8
20260508044803 51 326 0.0 1.0 0.00 0.00 0.00 89 1011.9
20260508044303 51 326 0.0 0.0 0.00 0.00 0.00 89 1011.9
20260508043303 51 326 0.0 1.0 0.00 0.00 0.00 88 1011.8
20260508042803 51 326 0.0 1.0 0.00 0.00 0.00 88 1011.8
20260508042306 51 326 0.0 0.0 0.00 0.00 0.00 87 1011.8
20260508041804 52 326 0.0 0.0 0.00 0.00 0.00 86 1011.7
20260508041304 52 326 0.0 1.0 0.00 0.00 0.00 85 1011.6
20260508040804 53 296 0.0 2.0 0.00 0.00 0.00 85 1011.6
20260508040302 53 256 0.0 0.0 0.00 0.00 0.00 85 1011.5
20260508035803 53 257 0.0 3.0 0.00 0.00 0.00 85 1011.5
20260508035306 53 319 2.0 3.0 0.00 0.00 0.00 84 1011.5
20260508034803 54 260 0.0 1.0 0.00 0.00 0.00 84 1011.5
20260508034303 54 260 0.0 2.0 0.00 0.00 0.00 84 1011.5
20260508033804 54 257 1.0 3.0 0.00 0.00 0.00 83 1011.5
20260508032803 54 271 1.0 3.0 0.00 0.00 0.00 83 1011.4
20260508032306 54 279 1.0 3.0 0.00 0.00 0.00 83 1011.5
20260508031803 54 278 1.0 2.0 0.00 0.00 0.00 83 1011.5
20260508031304 54 276 0.0 1.0 0.00 0.00 0.00 83 1011.5
20260508030803 54 279 0.0 1.0 0.00 0.00 0.00 83 1011.5
20260508030303 54 273 1.0 3.0 0.00 0.00 0.00 83 1011.5
20260508025803 54 274 3.0 5.0 0.00 0.00 0.00 83 1011.6
20260508024804 55 274 1.0 3.0 0.00 0.00 0.00 83 1011.6
20260508024303 55 276 1.0 3.0 0.00 0.00 0.00 83 1011.6
20260508023304 55 271 0.0 3.0 0.00 0.00 0.00 83 1011.7
20260508022306 55 278 0.0 3.0 0.00 0.00 0.00 83 1011.8
20260508021803 55 262 0.0 2.0 0.00 0.00 0.00 82 1011.7
20260508021303 55 289 0.0 1.0 0.00 0.00 0.00 82 1011.7
20260508020803 55 270 1.0 3.0 0.00 0.00 0.00 82 1011.7
20260508015804 55 252 0.0 3.0 0.00 0.00 0.00 82 1011.9
20260508015306 55 255 0.0 3.0 0.00 0.00 0.00 83 1011.9
20260508013803 55 274 0.0 2.0 0.00 0.00 0.00 85 1011.9
20260508013303 55 265 1.0 2.0 0.00 0.00 0.00 85 1012.0
20260508012803 55 278 0.0 1.0 0.00 0.00 0.00 87 1012.0
20260508012307 55 299 0.0 0.0 0.00 0.00 0.00 87 1012.1
20260508011803 55 299 0.0 0.0 0.00 0.00 0.00 87 1012.2
20260508011304 55 358 0.0 0.0 0.00 0.00 0.00 86 1012.3
20260508010302 55 299 0.0 1.0 0.00 0.00 0.00 86 1012.3
20260508005803 55 279 0.0 1.0 0.00 0.00 0.00 86 1012.3
20260508005305 56 279 0.0 1.0 0.00 0.00 0.00 85 1012.3
20260508004802 56 279 0.0 1.0 0.00 0.00 0.00 86 1012.3
20260508003803 56 279 0.0 1.0 0.00 0.00 0.00 85 1012.3
20260508003302 56 279 0.0 1.0 0.00 0.00 0.00 84 1012.4
20260508002803 57 278 0.0 1.0 0.00 0.00 0.00 84 1012.3
20260508002306 57 276 0.0 1.0 0.00 0.00 0.00 84 1012.3
20260508001804 56 257 0.0 2.0 0.00 0.00 0.00 85 1012.4
20260508000802 56 331 0.0 0.0 0.00 0.00 0.00 85 1012.6
20260508000305 56 331 0.0 0.0 0.00 0.00 0.00 85 1012.6
20260507235803 56 331 0.0 0.0 0.00 0.00 0.00 85 1012.6
20260507235306 56 331 0.0 0.0 0.00 0.00 0.00 85 1012.6
20260507234802 56 331 0.0 0.0 0.00 0.00 0.00 85 1012.6
20260507234303 56 331 0.0 1.0 0.00 0.00 0.00 85 1012.7
20260507233803 56 335 0.0 0.0 0.00 0.00 0.00 84 1012.7
20260507233303 56 336 0.0 0.0 0.00 0.00 0.00 84 1012.8
20260507232803 56 336 0.0 0.0 0.00 0.00 0.00 84 1012.8
20260507231803 57 336 0.0 0.0 0.00 0.00 0.00 84 1012.9
20260507231303 57 336 0.0 0.0 0.00 0.00 0.00 83 1012.9
20260507230303 57 336 0.0 0.0 0.00 0.00 0.00 83 1013.0
20260507225802 57 337 0.0 0.0 0.00 0.00 0.00 83 1013.0
20260507225305 57 338 0.0 1.0 0.00 0.00 0.00 83 1013.0
20260507224803 57 280 0.0 0.0 0.00 0.00 0.00 83 1013.1
20260507223802 57 280 0.0 0.0 0.00 0.00 0.00 82 1013.1
20260507223303 57 280 0.0 0.0 0.00 0.00 0.00 82 1013.2
20260507222803 58 280 0.0 0.0 0.00 0.00 0.00 82 1013.2
20260507222305 58 280 0.0 0.0 0.00 0.00 0.00 81 1013.2
20260507221803 58 280 0.0 0.0 0.00 0.00 0.00 81 1013.2
20260507221303 58 280 0.0 1.0 0.00 0.00 0.00 81 1013.2
20260507220810 58 279 0.0 1.0 0.00 0.00 0.00 81 1013.3
20260507220302 58 279 1.0 2.0 0.00 0.00 0.00 80 1013.3
20260507215803 58 275 1.0 2.0 0.00 0.00 0.00 80 1013.3
20260507215306 59 334 0.0 0.0 0.00 0.00 0.00 80 1013.3
20260507214802 59 334 0.0 0.0 0.00 0.00 0.00 80 1013.3
20260507213803 59 334 0.0 0.0 0.00 0.00 0.00 79 1013.3
20260507213302 59 334 0.0 0.0 0.00 0.00 0.00 79 1013.3
20260507212803 59 334 0.0 0.0 0.00 0.00 0.00 79 1013.4
20260507212306 59 334 0.0 1.0 0.00 0.00 0.00 78 1013.3
20260507211803 59 276 0.0 0.0 0.00 0.00 0.00 78 1013.2
20260507210803 59 276 0.0 1.0 0.00 0.00 0.00 78 1013.2
20260507210302 59 276 0.0 0.0 0.00 0.00 0.00 78 1013.2
20260507205803 59 276 0.0 0.0 0.00 0.00 0.00 78 1013.2
20260507205306 60 276 0.0 1.0 0.00 0.00 0.00 78 1013.2
20260507204802 60 276 0.0 1.0 0.00 0.00 0.00 78 1013.2
20260507204304 60 276 0.0 0.0 0.00 0.00 0.00 77 1013.1
20260507203802 60 276 0.0 1.0 0.00 0.00 0.00 77 1013.0
20260507203303 60 276 0.0 1.0 0.00 0.00 0.00 77 1013.1
20260507202803 60 276 0.0 1.0 0.00 0.00 0.00 76 1013.0
20260507202306 60 276 0.0 0.0 0.00 0.00 0.00 76 1013.0
20260507201303 61 276 0.0 1.0 0.00 0.00 0.00 75 1012.9
20260507200803 61 276 0.0 1.0 0.00 0.00 0.00 75 1012.9
20260507200303 61 276 0.0 2.0 0.00 0.00 0.00 74 1012.8
20260507195803 61 286 0.0 1.0 0.00 0.00 0.00 74 1012.8
20260507195305 61 286 0.0 1.0 0.00 0.00 0.00 74 1012.7
20260507193804 61 286 0.0 2.0 0.00 0.00 0.00 74 1012.3
20260507193303 62 286 0.0 2.0 0.00 0.00 0.00 73 1012.3
20260507192803 62 286 0.0 2.0 0.00 0.00 0.00 72 1012.1
20260507191803 62 299 0.0 0.0 0.00 0.00 0.00 71 1012.0
20260507190803 63 328 0.0 0.0 0.00 0.00 0.00 71 1012.0
20260507190303 63 327 1.0 2.0 0.00 0.00 0.00 70 1011.9
20260507185803 63 326 1.0 3.0 0.00 0.00 0.00 70 1011.9
20260507185305 63 323 1.0 2.0 0.00 0.00 0.00 69 1011.8
20260507184304 64 323 2.0 3.0 0.00 0.00 0.00 69 1011.6
20260507183803 64 272 0.0 3.0 0.00 0.00 0.00 69 1011.6
20260507183303 64 325 1.0 3.0 0.00 0.00 0.00 69 1011.5
20260507182803 64 322 2.0 5.0 0.00 0.00 0.00 68 1011.5